Weather reports worldwide

Advertisment
Magilligan, United Kingdom (3907): temperature & dewpoint: 20.09.2018 16:00:00 - 26.09.2018 16:00:00 (BST)Magilligan, United Kingdom (3907): temperature -20cm & temperature -100cm: 20.09.2018 16:00:00 - 26.09.2018 16:00:00 (BST)Magilligan, United Kingdom (3907): wind speed & gusts: 20.09.2018 16:00:00 - 26.09.2018 16:00:00 (BST)Magilligan, United Kingdom (3907): wind direction: 20.09.2018 16:00:00 - 26.09.2018 16:00:00 (BST)Magilligan, United Kingdom (3907): reduced air pressure: 20.09.2018 16:00:00 - 26.09.2018 16:00:00 (BST)Magilligan, United Kingdom (3907): visibility: 20.09.2018 16:00:00 - 26.09.2018 16:00:00 (BST)Magilligan, United Kingdom (3907): sunshine duration: 20.09.2018 16:00:00 - 26.09.2018 16:00:00 (BST)Magilligan, United Kingdom (3907): precipitation: 20.09.2018 16:00:00 - 26.09.2018 16:00:00 (BST)
Date & Time tt [°C] td [°C] tt -20cm [°C] tt -100cm [°C] ff [km/h] ff [kn] fx [km/h] fx [kn] dd ppp [hPa] vv [km] sd [min] rr [mm]
26.09.2018 16:00:00 16,7 14,6 - - 34 18 48 26 SW 1026,6 45 6 0,0
26.09.2018 15:00:00 17,9 14,7 - - 37 20 52 28 WSW 1026,4 35 18 0,0
26.09.2018 14:00:00 16,7 14,8 - - 24 13 - - SW 1026,1 40 0 0,0
26.09.2018 13:00:00 16,0 14,3 - - 28 15 46 25 SW 1026,1 35 0 0,0
26.09.2018 12:00:00 16,5 14,7 - - 24 13 - - WSW 1025,9 45 0 0,0
26.09.2018 11:00:00 15,8 14,3 - - 29 16 - - SW 1025,7 40 0 0,0
26.09.2018 10:00:00 15,3 14,7 13,7 12,4 28 15 - - SW 1025,2 20 0 0,0
26.09.2018 09:00:00 15,1 14,8 - - 28 15 - - SW 1024,3 15 0 0,0
26.09.2018 08:00:00 15,2 14,7 - - 35 19 46 25 WSW 1023,5 16 0 0,0
26.09.2018 07:00:00 14,8 14,0 - - 26 14 46 25 SW 1022,6 10 0 0,0
26.09.2018 06:00:00 15,5 14,5 - - 34 18 - - SW 1022,0 15 0 0,0
26.09.2018 05:00:00 15,3 14,1 - - 26 14 - - SW 1022,1 20 0 0,0
26.09.2018 04:00:00 15,1 14,5 - - 28 15 - - SW 1022,0 45 0 0,0
26.09.2018 03:00:00 14,8 13,9 - - 28 15 46 25 SW 1022,1 23 0 0,0
26.09.2018 02:00:00 14,8 13,2 - - 29 16 - - SSW 1021,9 13 0 0,0
26.09.2018 01:00:00 14,7 12,7 - - 24 13 48 26 SW 1022,6 50 - 0,0
26.09.2018 00:00:00 14,7 12,4 - - 31 17 - - SSW 1022,9 50 0 0,0
25.09.2018 23:00:00 14,2 12,3 - - 31 17 - - SSW 1023,2 50 0 0,0
25.09.2018 22:00:00 14,2 12,1 - - 31 17 46 25 SSW 1022,7 50 0 0,0
25.09.2018 21:00:00 14,1 11,6 - - 34 18 55 30 SSW 1023,3 50 0 0,0
25.09.2018 20:00:00 14,1 11,5 - - 42 23 61 33 SSW 1023,2 50 0 0,0
25.09.2018 19:00:00 13,7 11,2 - - 39 21 54 29 SSW 1023,6 50 0 0,0
25.09.2018 18:00:00 13,8 10,8 - - 44 24 63 34 SSW 1023,7 50 0 0,0
25.09.2018 17:00:00 13,7 10,7 - - 35 19 57 31 SSW 1024,7 45 0 0,0
25.09.2018 16:00:00 13,8 10,0 - - 42 23 63 34 SSW 1025,0 50 0 0,0
25.09.2018 15:00:00 14,0 9,8 - - 41 22 67 36 SSW 1025,1 40 0 0,0
25.09.2018 14:00:00 13,0 9,2 - - 39 21 63 34 SSW 1025,9 40 0 0,0
25.09.2018 13:00:00 12,4 8,0 - - 41 22 59 32 SSW 1026,3 45 0 0,0
25.09.2018 12:00:00 12,0 7,3 - - 34 18 48 26 SSW 1027,2 50 0 0,0
25.09.2018 11:00:00 11,1 6,8 - - 34 18 46 25 S 1027,9 45 0 0,0
25.09.2018 10:00:00 10,2 6,2 12,9 12,7 31 17 48 26 S 1028,6 50 0 0,0
25.09.2018 09:00:00 9,8 5,9 - - 35 19 48 26 SSW 1029,1 45 0 0,0
25.09.2018 08:00:00 9,3 5,6 - - 28 15 - - SSW 1029,9 50 0 0,0
25.09.2018 07:00:00 8,9 5,3 - - 18 10 - - SSW 1030,9 45 0 0,0
25.09.2018 06:00:00 9,1 5,3 - - 22 12 - - S 1031,9 40 0 0,0
25.09.2018 05:00:00 8,6 4,6 - - 22 12 - - S 1032,7 45 0 0,0
25.09.2018 04:00:00 7,1 4,3 - - 18 10 - - SSW 1033,2 45 0 0,0
25.09.2018 03:00:00 8,0 4,4 - - 15 8 - - S 1034,3 50 0 0,0
25.09.2018 02:00:00 8,8 5,7 - - 18 10 - - S 1034,5 50 0 0,0
25.09.2018 01:00:00 8,0 5,7 - - 13 7 - - WSW 1035,8 50 - 0,0
25.09.2018 00:00:00 8,5 5,3 - - 11 6 - - SSW 1035,6 50 0 0,0
24.09.2018 23:00:00 9,0 6,0 - - 11 6 - - S 1036,1 50 0 0,0
24.09.2018 22:00:00 8,5 6,2 - - 13 7 - - S 1036,5 50 0 0,0
24.09.2018 21:00:00 8,8 6,6 - - 11 6 - - S 1036,7 50 0 0,0
24.09.2018 20:00:00 10,8 7,8 - - 15 8 - - SW 1036,6 50 0 0,0
24.09.2018 19:00:00 11,3 7,7 - - 18 10 - - WSW 1036,8 50 0 0,0
24.09.2018 18:00:00 12,5 8,6 - - 18 10 - - WSW 1036,8 45 6 0,0
24.09.2018 17:00:00 13,0 7,7 - - 13 7 - - W 1036,7 45 24 0,0
24.09.2018 16:00:00 - - - - - - - - - - 40 18 0,0
24.09.2018 15:00:00 - - - - - - - - - - - 6 0,0
24.09.2018 14:00:00 - - - - - - - - - - - 18 0,0
24.09.2018 13:00:00 11,2 8,0 - - 21 11 - - SW 1038,1 - 12 0,0
24.09.2018 12:00:00 10,6 7,6 - - 26 14 - - SW 1038,0 - 0 0,0
24.09.2018 11:00:00 10,1 7,6 - - 21 11 - - SW 1037,9 - 24 0,0
24.09.2018 10:00:00 9,3 7,1 12,7 12,7 22 12 - - SW 1037,5 - 18 0,0
24.09.2018 09:00:00 8,2 6,2 - - 18 10 - - SSW 1037,1 - 0 0,0
24.09.2018 08:00:00 7,1 5,4 - - 15 8 - - SSW 1036,6 - 0 0,2
24.09.2018 07:00:00 7,3 5,8 - - 13 7 - - SW 1036,4 - 0 0,0
24.09.2018 06:00:00 5,9 4,5 - - 15 8 - - SSW 1036,1 - 0 0,0
24.09.2018 05:00:00 7,3 5,7 - - 18 10 - - WSW 1035,9 - 0 0,0
24.09.2018 04:00:00 7,5 5,7 - - 18 10 - - WSW 1035,9 - 0 0,0
24.09.2018 03:00:00 7,7 6,3 - - 16 9 - - SW 1035,8 - 0 0,0
24.09.2018 02:00:00 6,5 4,9 - - 11 6 - - SSW 1035,6 - 0 0,0
24.09.2018 01:00:00 7,5 5,4 - - 16 9 - - SW 1035,1 - - 0,0
24.09.2018 00:00:00 8,0 5,9 - - 11 6 - - W 1034,6 - 0 0,0
23.09.2018 23:00:00 8,3 5,3 - - 15 8 - - WNW 1033,8 - 0 0,0
23.09.2018 22:00:00 7,7 4,8 - - 11 6 - - WNW 1032,9 - 0 0,0
23.09.2018 21:00:00 8,3 4,3 - - 16 9 - - WNW 1032,4 - 0 0,0
23.09.2018 20:00:00 9,2 4,5 - - 21 11 - - WNW 1031,6 - 0 0,0
23.09.2018 19:00:00 9,8 5,2 - - 21 11 - - WNW 1030,8 - 36 0,0
23.09.2018 18:00:00 11,2 5,4 - - 28 15 - - NW 1029,6 - 60 0,0
23.09.2018 17:00:00 11,5 5,3 - - 29 16 - - NNW 1028,6 - 36 0,0
23.09.2018 16:00:00 12,1 5,5 - - 29 16 46 25 NW 1027,9 - 36 0,0
23.09.2018 15:00:00 12,7 6,6 - - 35 19 46 25 NNW 1026,8 - 42 0,0
23.09.2018 14:00:00 12,2 6,7 - - 31 17 - - NNW 1025,8 - 36 0,0
23.09.2018 13:00:00 10,9 6,0 - - 28 15 - - NNW 1024,8 - 24 0,2
23.09.2018 12:00:00 8,9 5,9 - - 28 15 52 28 NNW 1024,0 - 18 0,6
23.09.2018 11:00:00 10,8 6,3 - - 29 16 48 26 NNW 1022,9 - 54 0,0
23.09.2018 10:00:00 8,4 6,2 13,2 13,0 21 11 50 27 NW 1022,0 - 18 1,2
23.09.2018 09:00:00 8,9 5,8 - - 16 9 50 27 WNW 1020,8 - 36 0,2
23.09.2018 08:00:00 7,2 4,4 - - 15 8 - - WNW 1020,2 - 0 0,0
23.09.2018 07:00:00 7,1 4,4 - - 16 9 - - WNW 1019,4 - 0 0,2
23.09.2018 06:00:00 7,8 4,9 - - 16 9 - - W 1019,0 - 0 0,0
23.09.2018 05:00:00 8,0 5,6 - - 26 14 - - WNW 1018,8 - 0 0,0
23.09.2018 04:00:00 5,2 4,1 - - 15 8 - - SSW 1018,7 - 0 0,0
23.09.2018 03:00:00 5,5 4,2 - - 11 6 - - SW 1018,5 - 0 0,0
23.09.2018 02:00:00 5,6 4,0 - - 15 8 - - SSW 1018,4 - 0 0,0
23.09.2018 01:00:00 6,7 5,1 - - 9 5 - - SW 1018,4 - - 0,0
23.09.2018 00:00:00 5,6 4,1 - - 13 7 - - SSW 1018,1 - 0 0,0
22.09.2018 23:00:00 4,8 2,9 - - 0 0 - - N 1018,3 - 0 0,0
22.09.2018 22:00:00 4,7 1,8 - - 8 4 - - WNW 1018,0 - 0 0,0
22.09.2018 21:00:00 7,4 4,4 - - 13 7 - - NW 1017,4 - 0 0,0
22.09.2018 20:00:00 8,0 3,9 - - 15 8 - - NW 1016,8 - 12 0,0
22.09.2018 19:00:00 9,8 3,7 - - 15 8 - - NW 1016,3 - 60 0,0
22.09.2018 18:00:00 11,8 5,0 - - 16 9 - - NW 1015,9 - 60 0,0
22.09.2018 17:00:00 12,7 5,1 - - 18 10 - - NW 1015,9 - 60 0,0
22.09.2018 16:00:00 12,8 6,6 - - 26 14 - - NW 1015,9 - 60 0,0
22.09.2018 15:00:00 12,9 5,0 - - 16 9 - - WNW 1015,8 - 54 0,0
22.09.2018 14:00:00 12,5 4,6 - - 15 8 - - NW 1015,8 - 30 0,0
22.09.2018 13:00:00 12,8 7,0 - - 16 9 - - WSW 1015,7 - 48 0,0
22.09.2018 12:00:00 10,5 6,6 - - 13 7 - - SSW 1015,8 - 18 0,0
22.09.2018 11:00:00 9,6 6,6 - - 13 7 - - SW 1015,7 - 6 0,0
22.09.2018 10:00:00 8,9 6,5 13,4 13,0 11 6 - - SSW 1015,5 - 0 0,0
22.09.2018 09:00:00 7,9 6,1 - - 13 7 - - SSW 1015,4 - 0 0,2
22.09.2018 08:00:00 7,7 5,7 - - 15 8 - - SSW 1015,3 - 0 0,0
22.09.2018 07:00:00 8,1 6,2 - - 18 10 - - WSW 1015,0 - 0 0,2
22.09.2018 06:00:00 7,8 6,2 - - 21 11 - - SW 1014,6 - 0 0,0
22.09.2018 05:00:00 8,1 6,4 - - 16 9 - - WSW 1014,5 - 0 0,4
22.09.2018 04:00:00 7,4 5,4 - - 15 8 - - SW 1014,4 - 0 0,0
22.09.2018 03:00:00 8,6 6,2 - - 24 13 - - WSW 1014,4 - 0 0,0
22.09.2018 02:00:00 8,1 6,1 - - 28 15 - - SW 1014,3 - 0 0,0
22.09.2018 01:00:00 7,8 5,0 - - 24 13 - - WSW 1013,6 - - 0,0
22.09.2018 00:00:00 8,6 5,8 - - 24 13 - - WSW 1013,4 - 0 0,2
21.09.2018 23:00:00 8,8 5,8 - - 28 15 50 27 W 1012,9 - 0 0,0
21.09.2018 22:00:00 8,8 5,7 - - 22 12 - - W 1012,6 - 0 0,0
21.09.2018 21:00:00 9,2 5,8 - - 21 11 48 26 W 1012,2 - 0 0,2
21.09.2018 20:00:00 9,7 5,7 - - 26 14 - - W 1011,2 - 6 0,0
21.09.2018 19:00:00 9,9 7,7 - - 31 17 50 27 W 1010,2 - 36 0,4
21.09.2018 18:00:00 10,6 7,0 - - 34 18 48 26 W 1009,4 - 42 0,0
21.09.2018 17:00:00 11,7 8,2 - - 28 15 55 30 W 1008,5 - 42 0,4
21.09.2018 16:00:00 13,3 7,4 - - 34 18 46 25 WNW 1007,6 - 24 0,0
21.09.2018 15:00:00 12,8 7,2 - - 34 18 50 27 WNW 1006,9 - 54 0,0
21.09.2018 14:00:00 13,3 7,7 - - 29 16 46 25 WNW 1005,8 - 30 0,0
21.09.2018 13:00:00 11,2 8,0 - - 35 19 63 34 NW 1004,0 - 12 0,0
21.09.2018 12:00:00 11,0 8,9 - - 24 13 50 27 WNW 1001,8 - 6 0,0
21.09.2018 11:00:00 10,7 8,8 - - 15 8 - - WNW 1000,0 - 0 0,2
21.09.2018 10:00:00 9,8 8,5 13,9 13,2 22 12 - - NW 998,2 - 6 0,4
21.09.2018 09:00:00 8,1 7,4 - - 26 14 46 25 SW 996,1 - 0 0,8
21.09.2018 08:00:00 8,4 6,7 - - 31 17 - - SW 996,1 - 0 0,0
21.09.2018 07:00:00 8,1 5,9 - - 29 16 - - SW 996,4 - 0 0,0
21.09.2018 06:00:00 7,8 6,1 - - 26 14 - - SW 996,7 - 0 0,0
21.09.2018 05:00:00 8,1 6,3 - - 28 15 - - WSW 997,1 - 0 0,2
21.09.2018 04:00:00 7,6 5,9 - - 21 11 - - SW 997,1 - 0 0,0
21.09.2018 03:00:00 8,7 6,0 - - 22 12 - - WNW 997,2 - 0 0,2
21.09.2018 02:00:00 8,4 6,1 - - 18 10 - - W 997,0 - 0 0,0
21.09.2018 01:00:00 8,3 6,2 - - 15 8 - - W 996,9 - - 0,4
21.09.2018 00:00:00 8,7 5,7 - - 18 10 - - W 997,0 - 0 0,2
20.09.2018 23:00:00 9,0 6,4 - - 18 10 - - WSW 997,2 - 0 0,0
20.09.2018 22:00:00 8,9 6,0 - - 13 7 - - W 997,7 - 0 0,0
20.09.2018 21:00:00 8,0 5,9 - - 2 1 - - S 998,0 - 0 0,0
20.09.2018 20:00:00 8,8 5,7 - - 8 4 - - N 998,6 - 0 0,0
20.09.2018 19:00:00 9,9 5,5 - - 21 11 - - NW 998,9 - 0 0,0
20.09.2018 18:00:00 10,9 7,3 - - 15 8 - - W 999,8 - 0 0,0
20.09.2018 17:00:00 12,2 7,6 - - 0 0 - - N 1000,6 - 0 0,0
20.09.2018 16:00:00 12,2 7,0 - - 8 4 - - WNW 1001,3 - 0 0,0

tt = temperature
td = dewpoint
tt -20cm = temperature -20cm
tt -100cm = temperature -100cm
ff = wind speed
fx = gusts
dd = wind direction
ppp = reduced air pressure
vv = visibility
sd = sunshine duration
rr = precipitation

Next stations